Regional Weather Roundup
Issued by NWS

Home | Current Version | Previous Version | Text Only | Print | Product List | Glossary On
Versions: 1 2 3 4 5 6 7 8 9 10 11 12 13 14 15 16 17 18 19 20 21 22 23 24 25 26 27 28 29 30 31 32 33 34 35 36 37 38 39 40 41 42 43 44 45 46 47 48 49 50
000
ASUS43 KOAX 020210
RWRNE

WEATHER ROUNDUP FOR NEBRASKA
NATIONAL WEATHER SERVICE OMAHA NE
800 PM CST SUN FEB 01 2015

NOTES: SATELLITE DATA IS BEING USED TO AUGMENT CLOUD COVER ABOVE
       12000 FEET.
       "FAIR" INDICATES FEW OR NO CLOUDS BELOW 12,000 FEET WITH NO
       SIGNIFICANT WEATHER AND/OR OBSTRUCTIONS TO VISIBILITY.

  * THESE STATIONS DO NOT REPORT WEATHER SUCH AS RAIN...SNOW OR FOG.

NEZ001>004-019>022-054>056-020300-
NEBRASKA PANHANDLE

CITY           SKY/WX    TMP DP  RH WIND       PRES   REMARKS
SCOTTSBLUFF    PTCLDY     8  32 100 E9        30.17F WCI  -5
ALLIANCE       PTCLDY    -8 -12  83 S7        30.17F WCI -23
CHADRON        PTCLDY     4  -1  80 CALM      30.18F
KIMBALL        PTCLDY     9   5  86 SE5       30.11F WCI   0
SIDNEY         PTCLDY     2  -2  83 S3        30.18F
$$

NEZ057>060-069>072-079>082-020300-
SOUTHWEST NEBRASKA

CITY           SKY/WX    TMP DP  RH WIND       PRES   REMARKS
NORTH PLATTE   PTCLDY     0  -4  83 CALM      30.30F
IMPERIAL       PTCLDY     5  -1  76 W7        30.28S WCI  -7
LEXINGTON      CLEAR      6   0  75 NW13      30.33R WCI -10
MCCOOK         CLEAR      9   0  67 NW9       30.32S WCI  -4
OGALLALA       PTCLDY    -1  -5  82 CALM      30.27F
$$

NEZ005>010-023>029-035>040-094-020300-
NORTH CENTRAL NEBRASKA

CITY           SKY/WX    TMP DP  RH WIND       PRES   REMARKS
VALENTINE      MOCLDY    -9 -12  87 W3        30.28F
AINSWORTH      PTCLDY    -3  -7  82 W6        30.29F WCI -15
BROKEN BOW     PTCLDY     3  -3  76 NW15      30.29S WCI -16
O`NEILL        PTCLDY    -1  -5  82 NW7       30.32F WCI -15
ORD            PTCLDY     2  -5  72 NW14      30.32F WCI -16
THEDFORD       MOCLDY    -2  -6  85 CALM      30.27F
$$

NEZ041-046>049-061>064-073>077-083>087-020300-
SOUTH CENTRAL NEBRASKA

CITY           SKY/WX    TMP DP  RH WIND       PRES   REMARKS
GRAND ISLAND   CLEAR      4  -3  73 NW16      30.34R WCI -15
AURORA         CLEAR      3  -2  78 N17       30.32R WCI -17
HASTINGS       CLEAR      4  -2  76 NW21      30.31R WCI -17
HEBRON         CLEAR      7   0  74 N12G18    30.33R WCI  -9
HOLDREGE       PTCLDY     6  -1  73 N14G21    30.31S WCI -12
KEARNEY *      CLEAR      3  -2  78 NW15      30.33R WCI -15
YORK           PTCLDY     5   0  78 N14G22    30.31S WCI -12
$$

NEZ011>018-030>034-042>045-020300-
NORTHEAST NEBRASKA

CITY           SKY/WX    TMP DP  RH WIND       PRES   REMARKS
NORFOLK        MOCLDY     3  -3  76 NW14      30.33R WCI -15
ALBION         CLEAR      2  -4  73 NW13      30.32S WCI -15
BLAIR          PTCLDY     8   2  78 NW18      30.27R WCI -11
FREMONT        PTCLDY     7   2  82 NW21      30.31R WCI -13
TEKAMAH        MOCLDY     7   1  76 NW20      30.32R WCI -13
WAYNE          CLEAR      2  -3  77 NW16G23   30.33R WCI -17
$$

NEZ050>053-065>068-078-088>093-020300-
SOUTHEAST NEBRASKA

CITY           SKY/WX    TMP DP  RH WIND       PRES   REMARKS
LINCOLN        FLURRIES   6   0  76 NW20      30.33R WCI -14
OMAHA EPPLEY   MOCLDY     9   4  80 NW20      30.29R WCI -10
BEATRICE       PTCLDY     6   1  79 N17       30.31R HAZE    WCI -13
FALLS CITY     LGT SNOW  11   7  84 NW15G26   30.24R FOG     WCI  -5
NEBRASKA CITY  LGT SNOW   9   4  80 N20G25    30.26R WCI -10
PLATTSMOUTH    FLURRIES   8   4  81 NW17      30.26R WCI -10
$$

NEZ044-045-051>053-067-020300-
OMAHA AREA

CITY           SKY/WX    TMP DP  RH WIND       PRES   REMARKS
OMAHA EPPLEY   MOCLDY     9   4  80 NW20      30.29R WCI -10
BLAIR          PTCLDY     8   2  78 NW18      30.27R WCI -11
FREMONT        PTCLDY     7   2  82 NW21      30.31R WCI -13
MILLARD        MOCLDY     8   3  78 NW5       30.30R WCI   0
OFFUTT AFB     PTCLDY    10   3  72 NW17G23   30.28R WCI  -7
PLATTSMOUTH    FLURRIES   8   4  81 NW17      30.26R WCI -10
WAHOO          MOCLDY     6   0  76 MISG      30.31R
$$



USA.gov is the U.S. government's official web portal to all federal, state and local government web resources and services.